| time (UTC) | temp C | wind direction | speed KPH | gust KPH | rain 1hr cm | rain 24hr cm | rain mn cm | humidity % | barometer mb |
| 20260507114504 | 4 | 261 | 25.7 | 33.8 | 0.00 | 0.00 | 0.00 | 80 | 1012.1 |
| 20260507114005 | 4 | 262 | 24.1 | 32.2 | 0.00 | 0.00 | 0.00 | 80 | 1012.2 |
| 20260507113506 | 4 | 265 | 22.5 | 32.2 | 0.00 | 0.00 | 0.00 | 80 | 1012.2 |
| 20260507112504 | 4 | 260 | 25.7 | 32.2 | 0.00 | 0.00 | 0.00 | 82 | 1012.2 |
| 20260507111005 | 3 | 258 | 24.1 | 32.2 | 0.00 | 0.00 | 0.00 | 84 | 1012.2 |
| 20260507110504 | 3 | 255 | 20.9 | 27.4 | 0.00 | 0.00 | 0.00 | 86 | 1012.2 |
| 20260507110004 | 2 | 257 | 22.5 | 27.4 | 0.00 | 0.00 | 0.00 | 87 | 1012.2 |
| 20260507105504 | 2 | 256 | 20.9 | 27.4 | 0.00 | 0.00 | 0.00 | 89 | 1012.3 |
| 20260507105004 | 2 | 256 | 20.9 | 27.4 | 0.00 | 0.00 | 0.00 | 89 | 1012.4 |
| 20260507103505 | 2 | 255 | 22.5 | 27.4 | 0.00 | 0.00 | 0.00 | 91 | 1012.5 |
| 20260507103005 | 2 | 257 | 20.9 | 27.4 | 0.00 | 0.00 | 0.00 | 92 | 1012.5 |
| 20260507102504 | 2 | 251 | 22.5 | 25.7 | 0.00 | 0.00 | 0.00 | 92 | 1012.5 |
| 20260507102006 | 2 | 251 | 22.5 | 25.7 | 0.00 | 0.00 | 0.00 | 92 | 1012.5 |
| 20260507101504 | 2 | 252 | 20.9 | 24.1 | 0.00 | 0.00 | 0.00 | 92 | 1012.5 |
| 20260507101004 | 2 | 248 | 20.9 | 24.1 | 0.00 | 0.00 | 0.00 | 92 | 1012.8 |
| 20260507100504 | 2 | 248 | 20.9 | 24.1 | 0.00 | 0.00 | 0.00 | 92 | 1012.7 |
| 20260507100005 | 2 | 247 | 17.7 | 25.7 | 0.00 | 0.00 | 0.00 | 92 | 1012.8 |
| 20260507095504 | 2 | 247 | 20.9 | 25.7 | 0.00 | 0.00 | 0.00 | 93 | 1012.9 |
| 20260507095005 | 2 | 251 | 19.3 | 24.1 | 0.00 | 0.00 | 0.00 | 93 | 1012.9 |
| 20260507094504 | 2 | 254 | 19.3 | 24.1 | 0.00 | 0.00 | 0.00 | 93 | 1012.9 |
| 20260507094004 | 2 | 258 | 17.7 | 22.5 | 0.00 | 0.00 | 0.00 | 93 | 1013.0 |
| 20260507093003 | 2 | 257 | 19.3 | 24.1 | 0.00 | 0.00 | 0.00 | 93 | 1013.0 |
| 20260507092504 | 2 | 252 | 19.3 | 24.1 | 0.00 | 0.00 | 0.00 | 93 | 1013.1 |
| 20260507092004 | 2 | 250 | 19.3 | 24.1 | 0.00 | 0.00 | 0.00 | 93 | 1013.2 |
| 20260507091004 | 2 | 252 | 19.3 | 24.1 | 0.00 | 0.00 | 0.00 | 94 | 1013.3 |
| 20260507090504 | 2 | 254 | 19.3 | 24.1 | 0.00 | 0.00 | 0.00 | 94 | 1013.5 |
| 20260507085504 | 1 | 251 | 20.9 | 24.1 | 0.00 | 0.00 | 0.00 | 94 | 1013.7 |
| 20260507085004 | 1 | 253 | 19.3 | 24.1 | 0.00 | 0.00 | 0.00 | 94 | 1013.8 |
| 20260507084503 | 1 | 253 | 20.9 | 24.1 | 0.00 | 0.00 | 0.00 | 94 | 1013.7 |
| 20260507084004 | 1 | 249 | 20.9 | 24.1 | 0.00 | 0.00 | 0.00 | 93 | 1013.7 |
| 20260507083504 | 2 | 247 | 17.7 | 24.1 | 0.00 | 0.00 | 0.00 | 93 | 1013.7 |
| 20260507083004 | 1 | 256 | 17.7 | 27.4 | 0.00 | 0.00 | 0.00 | 92 | 1013.8 |
| 20260507082504 | 2 | 250 | 20.9 | 27.4 | 0.00 | 0.00 | 0.00 | 92 | 1013.8 |
| 20260507082003 | 2 | 246 | 20.9 | 27.4 | 0.00 | 0.00 | 0.00 | 92 | 1013.8 |
| 20260507081504 | 2 | 253 | 22.5 | 27.4 | 0.00 | 0.00 | 0.00 | 92 | 1013.9 |
| 20260507081004 | 2 | 254 | 20.9 | 29.0 | 0.00 | 0.00 | 0.00 | 92 | 1014.2 |
| 20260507080505 | 2 | 251 | 22.5 | 32.2 | 0.00 | 0.00 | 0.00 | 91 | 1014.3 |
| 20260507075503 | 2 | 246 | 25.7 | 32.2 | 0.00 | 0.00 | 0.00 | 92 | 1014.5 |
| 20260507074504 | 1 | 241 | 22.5 | 29.0 | 0.00 | 0.00 | 0.00 | 92 | 1014.7 |
| 20260507074003 | 1 | 247 | 20.9 | 27.4 | 0.00 | 0.00 | 0.00 | 92 | 1014.8 |
| 20260507073509 | 2 | 246 | 22.5 | 27.4 | 0.00 | 0.00 | 0.00 | 92 | 1015.0 |
| 20260507073009 | 1 | 244 | 22.5 | 25.7 | 0.00 | 0.00 | 0.00 | 93 | 1015.0 |
| 20260507072008 | 2 | 243 | 20.9 | 24.1 | 0.00 | 0.00 | 0.00 | 92 | 1015.1 |
| 20260507071508 | 2 | 240 | 19.3 | 24.1 | 0.00 | 0.00 | 0.00 | 92 | 1015.2 |
| 20260507071008 | 2 | 240 | 16.1 | 24.1 | 0.00 | 0.00 | 0.00 | 93 | 1015.2 |
| 20260507070012 | 2 | 239 | 16.1 | 22.5 | 0.00 | 0.03 | 0.00 | 92 | 1015.3 |
| 20260507064508 | 2 | 240 | 19.3 | 24.1 | 0.00 | 0.03 | 0.00 | 92 | 1015.5 |
| 20260507064010 | 2 | 239 | 16.1 | 24.1 | 0.00 | 0.03 | 0.00 | 91 | 1015.5 |
| 20260507063508 | 2 | 238 | 19.3 | 24.1 | 0.00 | 0.03 | 0.00 | 91 | 1015.5 |
| 20260507062508 | 2 | 235 | 19.3 | 25.7 | 0.00 | 0.03 | 0.00 | 90 | 1015.7 |
| 20260507062010 | 2 | 239 | 20.9 | 25.7 | 0.00 | 0.03 | 0.00 | 90 | 1015.7 |
| 20260507061509 | 2 | 240 | 20.9 | 32.2 | 0.00 | 0.03 | 0.00 | 90 | 1015.8 |
| 20260507061009 | 2 | 241 | 19.3 | 32.2 | 0.00 | 0.03 | 0.00 | 90 | 1015.8 |
| 20260507060509 | 2 | 241 | 24.1 | 32.2 | 0.00 | 0.03 | 0.00 | 90 | 1015.9 |
| 20260507060009 | 2 | 247 | 22.5 | 32.2 | 0.00 | 0.03 | 0.00 | 90 | 1015.9 |
| 20260507055508 | 2 | 245 | 22.5 | 29.0 | 0.00 | 0.03 | 0.00 | 91 | 1016.0 |
| 20260507055009 | 2 | 238 | 22.5 | 29.0 | 0.00 | 0.03 | 0.00 | 91 | 1016.0 |
| 20260507054508 | 2 | 238 | 20.9 | 25.7 | 0.00 | 0.03 | 0.00 | 91 | 1016.0 |
| 20260507054008 | 2 | 235 | 19.3 | 25.7 | 0.00 | 0.03 | 0.00 | 91 | 1015.9 |
| 20260507053509 | 2 | 236 | 19.3 | 24.1 | 0.00 | 0.03 | 0.00 | 91 | 1015.9 |
| 20260507053009 | 2 | 238 | 17.7 | 24.1 | 0.00 | 0.03 | 0.00 | 90 | 1016.0 |
| 20260507052508 | 2 | 239 | 19.3 | 24.1 | 0.00 | 0.03 | 0.00 | 90 | 1016.0 |
| 20260507052010 | 2 | 236 | 19.3 | 22.5 | 0.00 | 0.03 | 0.00 | 90 | 1016.1 |
| 20260507051508 | 2 | 239 | 19.3 | 22.5 | 0.00 | 0.03 | 0.00 | 90 | 1016.1 |
| 20260507051008 | 2 | 240 | 19.3 | 24.1 | 0.00 | 0.03 | 0.00 | 90 | 1016.1 |
| 20260507050509 | 2 | 239 | 19.3 | 24.1 | 0.00 | 0.03 | 0.00 | 90 | 1016.1 |
| 20260507050008 | 2 | 245 | 19.3 | 24.1 | 0.00 | 0.03 | 0.00 | 90 | 1016.1 |
| 20260507045008 | 2 | 244 | 17.7 | 20.9 | 0.00 | 0.03 | 0.00 | 91 | 1016.3 |
| 20260507044508 | 2 | 244 | 16.1 | 20.9 | 0.00 | 0.03 | 0.00 | 91 | 1016.4 |
| 20260507044009 | 2 | 242 | 16.1 | 19.3 | 0.00 | 0.03 | 0.00 | 90 | 1016.4 |
| 20260507043509 | 2 | 240 | 14.5 | 19.3 | 0.00 | 0.03 | 0.00 | 89 | 1016.6 |
| 20260507043009 | 2 | 239 | 14.5 | 19.3 | 0.00 | 0.03 | 0.00 | 88 | 1016.6 |
| 20260507042508 | 3 | 238 | 14.5 | 19.3 | 0.00 | 0.03 | 0.00 | 87 | 1016.7 |
| 20260507042008 | 3 | 241 | 16.1 | 19.3 | 0.00 | 0.03 | 0.00 | 87 | 1016.8 |
| 20260507041507 | 3 | 241 | 16.1 | 20.9 | 0.00 | 0.03 | 0.00 | 87 | 1016.8 |
| 20260507040508 | 3 | 248 | 17.7 | 22.5 | 0.00 | 0.05 | 0.00 | 86 | 1016.9 |
| 20260507040007 | 3 | 250 | 19.3 | 22.5 | 0.00 | 0.05 | 0.00 | 86 | 1016.9 |
| 20260507035009 | 3 | 248 | 16.1 | 20.9 | 0.00 | 0.05 | 0.00 | 86 | 1017.0 |
| 20260507034009 | 3 | 247 | 16.1 | 20.9 | 0.00 | 0.08 | 0.00 | 86 | 1017.1 |
| 20260507033508 | 3 | 246 | 14.5 | 20.9 | 0.00 | 0.08 | 0.00 | 86 | 1017.2 |
| 20260507033009 | 3 | 244 | 14.5 | 19.3 | 0.00 | 0.08 | 0.00 | 86 | 1017.3 |
| 20260507032507 | 3 | 241 | 14.5 | 16.1 | 0.00 | 0.08 | 0.00 | 85 | 1017.3 |
| 20260507031509 | 3 | 242 | 14.5 | 16.1 | 0.00 | 0.08 | 0.00 | 84 | 1017.3 |
| 20260507031007 | 3 | 244 | 14.5 | 16.1 | 0.00 | 0.08 | 0.00 | 84 | 1017.2 |
| 20260507030509 | 3 | 242 | 14.5 | 16.1 | 0.00 | 0.08 | 0.00 | 83 | 1017.1 |
| 20260507030008 | 4 | 243 | 14.5 | 16.1 | 0.00 | 0.08 | 0.00 | 82 | 1017.0 |
| 20260507025508 | 4 | 243 | 14.5 | 16.1 | 0.00 | 0.08 | 0.00 | 82 | 1017.0 |
| 20260507025008 | 4 | 247 | 14.5 | 16.1 | 0.00 | 0.10 | 0.00 | 82 | 1017.1 |
| 20260507024507 | 4 | 249 | 14.5 | 16.1 | 0.00 | 0.10 | 0.00 | 82 | 1017.0 |
| 20260507024008 | 5 | 245 | 14.5 | 16.1 | 0.00 | 0.10 | 0.00 | 81 | 1017.0 |
| 20260507023509 | 5 | 239 | 14.5 | 19.3 | 0.00 | 0.10 | 0.00 | 80 | 1016.9 |
| 20260507023009 | 5 | 237 | 14.5 | 19.3 | 0.00 | 0.10 | 0.00 | 78 | 1016.9 |
| 20260507022507 | 5 | 239 | 14.5 | 16.1 | 0.00 | 0.10 | 0.00 | 77 | 1016.8 |
| 20260507022007 | 6 | 240 | 14.5 | 16.1 | 0.00 | 0.10 | 0.00 | 75 | 1016.8 |
| 20260507021509 | 6 | 241 | 14.5 | 16.1 | 0.00 | 0.10 | 0.00 | 73 | 1016.8 |
| 20260507021008 | 6 | 242 | 14.5 | 19.3 | 0.00 | 0.10 | 0.00 | 71 | 1016.8 |
| 20260507020508 | 7 | 251 | 14.5 | 19.3 | 0.00 | 0.10 | 0.00 | 70 | 1016.7 |
| 20260507020009 | 7 | 252 | 14.5 | 19.3 | 0.00 | 0.13 | 0.00 | 69 | 1016.7 |
| 20260507015508 | 7 | 250 | 14.5 | 16.1 | 0.00 | 0.13 | 0.00 | 68 | 1016.7 |
| 20260507015008 | 7 | 252 | 14.5 | 19.3 | 0.00 | 0.13 | 0.00 | 67 | 1016.7 |
| 20260507014507 | 8 | 254 | 14.5 | 19.3 | 0.00 | 0.13 | 0.00 | 66 | 1016.7 |
| 20260507014009 | 8 | 256 | 14.5 | 20.9 | 0.00 | 0.13 | 0.00 | 64 | 1016.7 |
| 20260507013507 | 8 | 252 | 14.5 | 20.9 | 0.00 | 0.13 | 0.00 | 62 | 1016.7 |
| 20260507013008 | 8 | 248 | 14.5 | 19.3 | 0.00 | 0.13 | 0.00 | 62 | 1016.7 |
| 20260507012507 | 9 | 237 | 11.3 | 19.3 | 0.00 | 0.13 | 0.00 | 61 | 1016.7 |
| 20260507012009 | 9 | 247 | 12.9 | 19.3 | 0.00 | 0.15 | 0.00 | 59 | 1016.7 |
| 20260507011508 | 10 | 245 | 14.5 | 19.3 | 0.00 | 0.15 | 0.00 | 58 | 1016.7 |
| 20260507011009 | 10 | 253 | 12.9 | 20.9 | 0.00 | 0.15 | 0.00 | 58 | 1016.7 |
| 20260507010508 | 10 | 255 | 14.5 | 22.5 | 0.00 | 0.18 | 0.00 | 58 | 1016.7 |
| 20260507010009 | 10 | 255 | 16.1 | 22.5 | 0.00 | 0.20 | 0.00 | 57 | 1016.8 |
| 20260507005507 | 10 | 249 | 9.7 | 19.3 | 0.00 | 0.23 | 0.00 | 55 | 1016.8 |
| 20260507005008 | 10 | 256 | 11.3 | 16.1 | 0.00 | 0.23 | 0.00 | 54 | 1016.8 |
| 20260507004507 | 10 | 261 | 12.9 | 16.1 | 0.00 | 0.25 | 0.00 | 55 | 1016.8 |
| 20260507004008 | 10 | 257 | 11.3 | 20.9 | 0.00 | 0.28 | 0.00 | 56 | 1016.9 |
| 20260507003507 | 10 | 253 | 14.5 | 22.5 | 0.00 | 0.28 | 0.00 | 55 | 1016.9 |
| 20260507003008 | 10 | 252 | 16.1 | 25.7 | 0.00 | 0.30 | 0.00 | 53 | 1016.9 |
| 20260507002507 | 10 | 253 | 19.3 | 25.7 | 0.00 | 0.30 | 0.00 | 53 | 1016.9 |
| 20260507002009 | 11 | 258 | 20.9 | 25.7 | 0.00 | 0.30 | 0.00 | 52 | 1017.0 |
| 20260507001507 | 11 | 265 | 16.1 | 24.1 | 0.00 | 0.33 | 0.00 | 50 | 1017.0 |
| 20260507001008 | 11 | 275 | 17.7 | 27.4 | 0.00 | 0.33 | 0.00 | 49 | 1017.0 |
| 20260507000507 | 11 | 258 | 19.3 | 27.4 | 0.00 | 0.36 | 0.00 | 49 | 1017.1 |
| 20260507000007 | 11 | 259 | 19.3 | 25.7 | 0.00 | 0.38 | 0.00 | 50 | 1017.1 |
| 20260506235507 | 11 | 256 | 20.9 | 29.0 | 0.00 | 0.38 | 0.00 | 47 | 1017.1 |
| 20260506235007 | 11 | 257 | 19.3 | 29.0 | 0.00 | 0.41 | 0.00 | 48 | 1017.2 |
| 20260506234506 | 11 | 239 | 19.3 | 25.7 | 0.00 | 0.41 | 0.00 | 50 | 1017.1 |
| 20260506234007 | 11 | 243 | 14.5 | 22.5 | 0.00 | 0.43 | 0.00 | 51 | 1017.1 |
| 20260506233507 | 11 | 285 | 11.3 | 22.5 | 0.00 | 0.43 | 0.00 | 50 | 1017.2 |
| 20260506233007 | 11 | 264 | 12.9 | 25.7 | 0.00 | 0.43 | 0.00 | 50 | 1017.3 |
| 20260506232507 | 11 | 244 | 14.5 | 25.7 | 0.00 | 0.43 | 0.00 | 50 | 1017.3 |
| 20260506232007 | 11 | 231 | 19.3 | 24.1 | 0.00 | 0.43 | 0.00 | 52 | 1017.3 |
| 20260506231008 | 11 | 274 | 9.7 | 20.9 | 0.00 | 0.46 | 0.00 | 49 | 1017.3 |
| 20260506230507 | 11 | 275 | 16.1 | 22.5 | 0.00 | 0.46 | 0.00 | 53 | 1017.4 |
| 20260506230006 | 11 | 248 | 14.5 | 22.5 | 0.00 | 0.46 | 0.00 | 51 | 1017.4 |
| 20260506225507 | 11 | 260 | 14.5 | 22.5 | 0.00 | 0.48 | 0.00 | 51 | 1017.5 |
| 20260506224507 | 10 | 278 | 14.5 | 19.3 | 0.00 | 0.51 | 0.00 | 53 | 1017.5 |
| 20260506224008 | 10 | 281 | 9.7 | 19.3 | 0.00 | 0.51 | 0.00 | 50 | 1017.5 |
| 20260506223006 | 10 | 279 | 9.7 | 20.9 | 0.00 | 0.53 | 0.00 | 52 | 1017.6 |
| 20260506222007 | 10 | 240 | 14.5 | 19.3 | 0.00 | 0.53 | 0.00 | 54 | 1017.7 |
| 20260506221507 | 10 | 240 | 9.7 | 20.9 | 0.00 | 0.53 | 0.00 | 54 | 1017.7 |
| 20260506221006 | 10 | 232 | 9.7 | 20.9 | 0.00 | 0.56 | 0.00 | 54 | 1017.7 |
| 20260506220507 | 10 | 254 | 14.5 | 24.1 | 0.00 | 0.56 | 0.00 | 54 | 1017.7 |
| 20260506220007 | 10 | 299 | 11.3 | 24.1 | 0.00 | 0.56 | 0.00 | 51 | 1017.8 |
| 20260506215506 | 10 | 251 | 11.3 | 16.1 | 0.00 | 0.56 | 0.00 | 52 | 1017.9 |
| 20260506215006 | 10 | 270 | 12.9 | 16.1 | 0.00 | 0.56 | 0.00 | 51 | 1017.9 |
| 20260506214508 | 10 | 275 | 9.7 | 22.5 | 0.00 | 0.56 | 0.00 | 50 | 1017.9 |
| 20260506214006 | 10 | 242 | 11.3 | 22.5 | 0.00 | 0.56 | 0.00 | 52 | 1018.0 |
| 20260506213506 | 10 | 294 | 12.9 | 16.1 | 0.00 | 0.58 | 0.00 | 52 | 1018.1 |
| 20260506213006 | 10 | 300 | 3.2 | 12.9 | 0.00 | 0.58 | 0.00 | 54 | 1018.2 |
| 20260506212506 | 10 | 240 | 1.6 | 11.3 | 0.00 | 0.58 | 0.00 | 53 | 1018.2 |
| 20260506212007 | 10 | 278 | 1.6 | 14.5 | 0.00 | 0.58 | 0.00 | 52 | 1018.3 |
| 20260506211506 | 10 | 310 | 8.0 | 16.1 | 0.00 | 0.61 | 0.00 | 51 | 1018.4 |
| 20260506211006 | 10 | 280 | 8.0 | 16.1 | 0.00 | 0.61 | 0.00 | 52 | 1018.4 |
| 20260506210507 | 10 | 315 | 12.9 | 16.1 | 0.00 | 0.61 | 0.00 | 51 | 1018.5 |
| 20260506210007 | 10 | 302 | 11.3 | 16.1 | 0.00 | 0.61 | 0.00 | 51 | 1018.5 |
| 20260506205507 | 10 | 344 | 4.8 | 14.5 | 0.00 | 0.61 | 0.00 | 53 | 1018.6 |
| 20260506205007 | 10 | 312 | 11.3 | 14.5 | 0.00 | 0.61 | 0.00 | 51 | 1018.7 |
| 20260506204508 | 10 | 233 | 9.7 | 19.3 | 0.00 | 0.61 | 0.00 | 53 | 1018.9 |
| 20260506203506 | 10 | 327 | 8.0 | 14.5 | 0.00 | 0.64 | 0.00 | 51 | 1019.0 |
| 20260506203008 | 10 | 283 | 8.0 | 14.5 | 0.00 | 0.64 | 0.00 | 54 | 1019.0 |
| 20260506202507 | 9 | 329 | 6.4 | 11.3 | 0.00 | 0.64 | 0.00 | 53 | 1019.0 |
| 20260506202007 | 9 | 26 | 3.2 | 12.9 | 0.00 | 0.64 | 0.00 | 53 | 1019.1 |
| 20260506201507 | 9 | 63 | 1.6 | 19.3 | 0.00 | 0.66 | 0.00 | 56 | 1019.1 |
| 20260506201006 | 9 | 351 | 8.0 | 19.3 | 0.00 | 0.66 | 0.00 | 52 | 1019.1 |
| 20260506200507 | 10 | 349 | 8.0 | 16.1 | 0.00 | 0.69 | 0.00 | 52 | 1019.1 |
| 20260506200006 | 10 | 332 | 8.0 | 20.9 | 0.00 | 0.69 | 0.00 | 52 | 1019.3 |
| 20260506195006 | 9 | 320 | 4.8 | 16.1 | 0.00 | 0.71 | 0.00 | 56 | 1019.2 |
| 20260506194506 | 9 | 338 | 8.0 | 16.1 | 0.00 | 0.71 | 0.00 | 56 | 1019.3 |
| 20260506194006 | 9 | 63 | 3.2 | 16.1 | 0.00 | 0.74 | 0.00 | 55 | 1019.3 |
| 20260506193506 | 9 | 55 | 4.8 | 16.1 | 0.00 | 0.74 | 0.00 | 54 | 1019.2 |
| 20260506193006 | 9 | 16 | 11.3 | 16.1 | 0.00 | 0.76 | 0.00 | 58 | 1019.3 |
| 20260506192506 | 9 | 271 | 6.4 | 14.5 | 0.00 | 0.76 | 0.00 | 58 | 1019.3 |
| 20260506191006 | 8 | 8 | 9.7 | 19.3 | 0.00 | 0.79 | 0.00 | 58 | 1019.4 |
| 20260506190506 | 8 | 301 | 11.3 | 16.1 | 0.00 | 0.79 | 0.00 | 58 | 1019.4 |
| 20260506185506 | 8 | 303 | 8.0 | 14.5 | 0.00 | 0.79 | 0.00 | 58 | 1019.6 |
| 20260506185006 | 8 | 320 | 4.8 | 9.7 | 0.00 | 0.79 | 0.00 | 61 | 1019.6 |
| 20260506184508 | 8 | 54 | 4.8 | 9.7 | 0.00 | 0.81 | 0.00 | 65 | 1019.6 |
| 20260506184006 | 8 | 257 | 1.6 | 12.9 | 0.00 | 0.81 | 0.00 | 61 | 1019.6 |
| 20260506183007 | 8 | 10 | 8.0 | 19.3 | 0.00 | 0.84 | 0.00 | 64 | 1019.7 |
| 20260506182506 | 8 | 25 | 4.8 | 19.3 | 0.00 | 0.84 | 0.00 | 65 | 1019.7 |
| 20260506182006 | 7 | 73 | 9.7 | 12.9 | 0.00 | 0.84 | 0.00 | 63 | 1019.8 |
| 20260506181506 | 8 | 18 | 3.2 | 12.9 | 0.00 | 0.86 | 0.00 | 71 | 1019.9 |
| 20260506181006 | 7 | 87 | 6.4 | 12.9 | 0.00 | 0.86 | 0.00 | 72 | 1019.9 |
| 20260506180507 | 8 | 49 | 8.0 | 14.5 | 0.00 | 0.86 | 0.00 | 69 | 1019.9 |
| 20260506180006 | 8 | 50 | 8.0 | 16.1 | 0.00 | 0.89 | 0.00 | 69 | 1019.9 |
| 20260506175507 | 8 | 62 | 11.3 | 16.1 | 0.00 | 0.89 | 0.00 | 72 | 1019.8 |
| 20260506174005 | 7 | 33 | 8.0 | 14.5 | 0.00 | 0.91 | 0.00 | 69 | 1019.9 |
| 20260506173006 | 7 | 44 | 11.3 | 14.5 | 0.00 | 0.94 | 0.00 | 71 | 1019.8 |
| 20260506172005 | 7 | 91 | 12.9 | 16.1 | 0.00 | 0.97 | 0.00 | 75 | 1019.9 |
| 20260506171005 | 7 | 43 | 8.0 | 11.3 | 0.00 | 0.97 | 0.00 | 75 | 1020.0 |
| 20260506170506 | 7 | 63 | 1.6 | 11.3 | 0.00 | 0.97 | 0.00 | 79 | 1020.1 |
| 20260506170005 | 7 | 7 | 8.0 | 14.5 | 0.00 | 0.99 | 0.00 | 80 | 1020.2 |
| 20260506165505 | 6 | 48 | 9.7 | 14.5 | 0.00 | 0.99 | 0.00 | 79 | 1020.2 |
| 20260506165006 | 6 | 71 | 9.7 | 11.3 | 0.00 | 1.02 | 0.00 | 77 | 1020.1 |
| 20260506164506 | 6 | 71 | 4.8 | 11.3 | 0.00 | 1.02 | 0.00 | 79 | 1020.2 |
| 20260506164006 | 6 | 99 | 4.8 | 11.3 | 0.00 | 1.04 | 0.00 | 81 | 1020.1 |
| 20260506163506 | 6 | 72 | 9.7 | 14.5 | 0.00 | 1.04 | 0.00 | 80 | 1020.1 |
| 20260506163006 | 6 | 51 | 8.0 | 16.1 | 0.00 | 1.04 | 0.00 | 78 | 1020.1 |
| 20260506162005 | 6 | 35 | 11.3 | 19.3 | 0.00 | 1.09 | 0.00 | 83 | 1019.9 |
| 20260506161505 | 6 | 70 | 9.7 | 14.5 | 0.00 | 1.09 | 0.00 | 82 | 1019.8 |
| 20260506161006 | 6 | 45 | 6.4 | 14.5 | 0.00 | 1.12 | 0.00 | 84 | 1019.9 |
| 20260506160505 | 6 | 32 | 9.7 | 14.5 | 0.00 | 1.14 | 0.00 | 84 | 1019.9 |
| 20260506160005 | 6 | 15 | 9.7 | 14.5 | 0.00 | 1.17 | 0.00 | 84 | 1019.8 |
| 20260506155505 | 6 | 48 | 9.7 | 19.3 | 0.00 | 1.17 | 0.00 | 85 | 1019.8 |
| 20260506155005 | 6 | 67 | 12.9 | 19.3 | 0.00 | 1.19 | 0.00 | 88 | 1019.8 |
| 20260506154506 | 6 | 40 | 14.5 | 20.9 | 0.00 | 1.19 | 0.00 | 84 | 1019.8 |
| 20260506154006 | 6 | 54 | 14.5 | 20.9 | 0.00 | 1.22 | 0.00 | 88 | 1019.8 |
| 20260506153506 | 6 | 47 | 14.5 | 20.9 | 0.00 | 1.22 | 0.00 | 86 | 1019.6 |
| 20260506153006 | 5 | 51 | 11.3 | 20.9 | 0.00 | 1.22 | 0.00 | 91 | 1019.6 |
| 20260506152505 | 5 | 53 | 12.9 | 19.3 | 0.00 | 1.22 | 0.00 | 92 | 1019.5 |
| 20260506152006 | 5 | 72 | 11.3 | 16.1 | 0.00 | 1.24 | 0.00 | 91 | 1019.4 |
| 20260506151506 | 5 | 77 | 9.7 | 14.5 | 0.00 | 1.24 | 0.00 | 93 | 1019.4 |
| 20260506151005 | 5 | 52 | 8.0 | 16.1 | 0.00 | 1.24 | 0.00 | 93 | 1019.4 |
| 20260506150506 | 5 | 42 | 9.7 | 16.1 | 0.00 | 1.24 | 0.00 | 92 | 1019.5 |
| 20260506150005 | 5 | 60 | 12.9 | 16.1 | 0.00 | 1.24 | 0.00 | 93 | 1019.4 |
| 20260506145505 | 4 | 59 | 11.3 | 16.1 | 0.00 | 1.27 | 0.00 | 93 | 1019.3 |
| 20260506145005 | 4 | 46 | 11.3 | 16.1 | 0.00 | 1.27 | 0.00 | 93 | 1019.1 |
| 20260506144505 | 4 | 42 | 12.9 | 16.1 | 0.00 | 1.27 | 0.00 | 94 | 1019.1 |
| 20260506144006 | 4 | 43 | 14.5 | 16.1 | 0.00 | 1.27 | 0.00 | 93 | 1018.9 |
| 20260506143507 | 4 | 43 | 11.3 | 16.1 | 0.00 | 1.30 | 0.00 | 94 | 1019.0 |
| 20260506143005 | 4 | 33 | 11.3 | 16.1 | 0.00 | 1.30 | 0.00 | 95 | 1019.1 |
| 20260506142506 | 4 | 30 | 11.3 | 16.1 | 0.00 | 1.32 | 0.00 | 95 | 1019.2 |
| 20260506141505 | 4 | 12 | 14.5 | 16.1 | 0.00 | 1.32 | 0.00 | 95 | 1019.4 |
| 20260506140505 | 3 | 18 | 14.5 | 19.3 | 0.00 | 1.32 | 0.00 | 95 | 1019.3 |
| 20260506140005 | 3 | 15 | 12.9 | 19.3 | 0.00 | 1.32 | 0.00 | 95 | 1019.2 |
| 20260506135505 | 3 | 14 | 16.1 | 20.9 | 0.00 | 1.32 | 0.00 | 95 | 1019.1 |
| 20260506134505 | 3 | 7 | 19.3 | 22.5 | 0.00 | 1.32 | 0.00 | 95 | 1019.1 |
| 20260506134005 | 3 | 14 | 16.1 | 20.9 | 0.00 | 1.32 | 0.00 | 94 | 1019.2 |
| 20260506133105 | 3 | 1 | 12.9 | 19.3 | 0.00 | 1.32 | 0.00 | 95 | 1019.1 |
| 20260506133005 | 3 | 355 | 14.5 | 19.3 | 0.00 | 1.32 | 0.00 | 94 | 1019.1 |
| 20260506132505 | 3 | 357 | 12.9 | 16.1 | 0.00 | 1.32 | 0.00 | 95 | 1019.0 |
| 20260506131505 | 2 | 356 | 11.3 | 12.9 | 0.00 | 1.32 | 0.00 | 95 | 1018.9 |
| 20260506131005 | 2 | 356 | 8.0 | 12.9 | 0.00 | 1.32 | 0.00 | 96 | 1018.9 |
| 20260506130006 | 2 | 351 | 6.4 | 9.7 | 0.00 | 1.32 | 0.00 | 96 | 1018.9 |
| 20260506125505 | 2 | 346 | 6.4 | 8.0 | 0.00 | 1.35 | 1.32 | 97 | 1018.6 |
| 20260506125005 | 2 | 332 | 3.2 | 8.0 | 0.00 | 1.35 | 1.32 | 97 | 1018.5 |
| 20260506124506 | 2 | 322 | 3.2 | 9.7 | 0.00 | 1.35 | 1.32 | 97 | 1018.4 |
| 20260506124006 | 2 | 310 | 3.2 | 9.7 | 0.00 | 1.35 | 1.32 | 97 | 1018.4 |
| 20260506123505 | 2 | 309 | 3.2 | 11.3 | 0.00 | 1.35 | 1.32 | 97 | 1018.3 |
| 20260506123005 | 2 | 316 | 8.0 | 11.3 | 0.00 | 1.35 | 1.32 | 97 | 1018.2 |
| 20260506122505 | 2 | 324 | 8.0 | 11.3 | 0.00 | 1.35 | 1.32 | 97 | 1018.2 |
| 20260506122005 | 2 | 320 | 9.7 | 11.3 | 0.00 | 1.35 | 1.32 | 97 | 1018.1 |
| 20260506121505 | 2 | 327 | 6.4 | 12.9 | 0.00 | 1.35 | 1.32 | 97 | 1017.9 |
| 20260506120504 | 2 | 329 | 9.7 | 14.5 | 0.00 | 1.37 | 1.32 | 98 | 1017.8 |
| 20260506120005 | 2 | 334 | 11.3 | 14.5 | 0.00 | 1.37 | 1.32 | 98 | 1017.9 |
| 20260506115505 | 1 | 334 | 9.7 | 12.9 | 0.00 | 1.37 | 1.32 | 97 | 1017.9 |
| 20260506115005 | 1 | 331 | 9.7 | 12.9 | 0.00 | 1.37 | 1.32 | 97 | 1017.8 |